Weather History for Barter Island, AK

Change the Weather History Date:

Thursday, November 21, 2013

  Actual Average Record
Temperature  
Mean Temperature -6 °F -  
Max Temperature 1 °F 9 °F 37 °F (2004)
Min Temperature -14 °F 0 °F -29 °F (2005)
Degree Days  
Heating Degree Days 72    
Moisture  
Dew Point -12 °F    
Average Humidity 83    
Maximum Humidity 87    
Minimum Humidity 78    
Precipitation  
Precipitation 0.00 in - - ()
Sea Level Pressure  
Sea Level Pressure 30.44 in    
Wind  
Wind Speed 8 mph (SSE)    
Max Wind Speed 20 mph    
Max Gust Speed -    
Visibility 9 miles    
Events Snow    
Averages and records for this station are not official NWS values.
T = Trace of Precipitation, MM = Missing Value Source: NWS Daily Summary

Daily Weather History Graph

Daily Weather History Graph

Search for Another Location

Airport:

Trip Planner

Search our weather history database for the weather conditions in past years. The results will help you decide how hot, cold, wet, or windy it might be!

Date:

Astronomy

Nov. 21, 2013 Rise Set
Actual Time 11:20 AM AKST 1:19 PM AKST
Civil Twilight 9:12 AM AKST 3:27 PM AKST
Nautical Twilight 7:44 AM AKST 4:55 PM AKST
Astronomical Twilight 6:29 AM AKST 6:09 PM AKST
Moon 6:00 PM AKST (11/21) 1:41 PM AKST (11/21)
Length of Visible Light 6h 14m
Length of Day
1h 58m
Waning Gibbous, 84% of the Moon is Illuminated
Nov 21
Waning Gibbous
Nov 25
Last Quarter
Dec 2
New
Dec 9
First Quarter
Dec 17
Full

Hourly Weather History & Observations

Time (AKST) Temp. Windchill Dew Point Humidity Pressure Visibility Wind Dir Wind Speed Gust Speed Precip Events Conditions
12:01 AM 1.0 °F -14.9 °F -2.0 °F 87% 30.52 in 8.0 mi West 10.4 mph - 0.00 in Snow Light Snow
1:01 AM -4.0 °F -17.8 °F -7.1 °F 87% 30.52 in 3.0 mi WSW 6.9 mph - 0.00 in Snow Light Snow
2:01 AM -7.1 °F -26.8 °F -11.9 °F 79% 30.53 in 9.0 mi WSW 12.7 mph - 0.00 in Snow Light Snow
3:01 AM -8.0 °F -28.0 °F -11.9 °F 83% 30.53 in 9.0 mi WSW 12.7 mph - 0.00 in Snow Light Snow
4:01 AM -8.0 °F -26.1 °F -11.9 °F 83% 30.53 in 10.0 mi WSW 10.4 mph - 0.00 in   Unknown
5:01 AM -9.0 °F -26.4 °F -14.1 °F 79% 30.52 in 10.0 mi WSW 9.2 mph - 0.00 in   Unknown
6:01 AM -11.0 °F -22.8 °F -15.0 °F 83% 30.51 in 10.0 mi SSW 4.6 mph - N/A   Unknown
7:01 AM -13.0 °F -25.1 °F -17.0 °F 82% 30.51 in 10.0 mi SSW 4.6 mph - N/A   Unknown
8:01 AM -13.0 °F -22.7 °F -18.0 °F 78% 30.50 in 10.0 mi South 3.5 mph - N/A   Unknown
9:01 AM -13.0 °F -22.7 °F -18.0 °F 78% 30.49 in 10.0 mi South 3.5 mph - N/A   Unknown
10:01 AM -13.0 °F -25.1 °F -17.0 °F 82% 30.49 in 10.0 mi South 4.6 mph - N/A   Unknown
11:01 AM -14.1 °F - -18.9 °F 79% 30.48 in 8.0 mi Calm Calm - N/A   Unknown
12:01 PM -11.9 °F -21.5 °F -16.1 °F 82% 30.47 in 10.0 mi SSE 3.5 mph - N/A   Unknown
1:01 PM -11.0 °F -20.4 °F -15.0 °F 83% 30.46 in 10.0 mi SE 3.5 mph - N/A   Unknown
2:01 PM -11.0 °F -22.8 °F -14.1 °F 86% 30.45 in 10.0 mi East 4.6 mph - N/A   Unknown
3:01 PM -9.9 °F -19.2 °F -14.1 °F 82% 30.43 in 10.0 mi East 3.5 mph - N/A   Unknown
4:01 PM -9.9 °F -21.5 °F -14.1 °F 82% 30.41 in 10.0 mi East 4.6 mph - N/A   Unknown
5:01 PM -9.0 °F -22.3 °F -11.9 °F 87% 30.39 in 10.0 mi East 5.8 mph - N/A   Unknown
6:01 PM -6.0 °F -22.6 °F -9.0 °F 87% 30.36 in 6.0 mi East 9.2 mph - 0.00 in Snow Light Snow
7:01 PM -2.0 °F -21.2 °F -5.1 °F 87% 30.35 in 10.0 mi East 13.8 mph - 0.00 in   Unknown
8:01 PM -0.0 °F -20.1 °F -4.0 °F 83% 30.32 in 10.0 mi East 16.1 mph - N/A   Unknown
9:01 PM -0.0 °F -20.1 °F -4.0 °F 83% 30.29 in 10.0 mi East 16.1 mph - N/A   Unknown
10:01 PM -0.9 °F -19.9 °F -5.1 °F 83% 30.27 in 10.0 mi East 13.8 mph - N/A   Unknown
11:01 PM -0.9 °F -23.0 °F -5.1 °F 83% 30.24 in 10.0 mi East 19.6 mph - N/A   Unknown